Time,TemperatureF,DewpointF,PressureIn,WindDirection,WindDirectionDegrees,WindSpeedMPH,WindSpeedGustMPH,Humidity,HourlyPrecipIn,Conditions,Clouds,dailyrainin,SolarRadiationWatts/m^2,SoftwareType,DateUTC
2013-04-19 00:00:00,46.0,45.0,-100.00,SSW,202,10.0,-999.0,97,-99.99,,,-99.99,0.000000,,2013-04-19 05:00:00,
2013-04-19 00:42:00,46.0,45.0,-100.00,SSW,202,10.0,-999.0,97,-99.99,,,-99.99,0.000000,,2013-04-19 05:42:00,
2013-04-19 00:52:00,46.0,45.0,-100.00,SSW,202,10.0,-999.0,97,-99.99,,,-99.99,0.000000,,2013-04-19 05:52:00,
2013-04-19 01:00:00,44.0,41.0,-100.00,SW,225,9.0,-999.0,92,-99.99,,,-99.99,0.000000,,2013-04-19 06:00:00,
2013-04-19 01:42:00,44.0,41.0,-100.00,SW,225,9.0,-999.0,92,-99.99,,,-99.99,0.000000,,2013-04-19 06:42:00,
2013-04-19 01:53:00,44.0,41.0,-100.00,SW,225,9.0,-999.0,92,-99.99,,,-99.99,0.000000,,2013-04-19 06:53:00,
2013-04-19 03:00:00,40.0,36.0,-100.00,SSW,202,9.0,-999.0,83,-99.99,,,-99.99,0.000000,,2013-04-19 08:00:00,
2013-04-19 03:42:00,40.0,36.0,-100.00,SSW,202,9.0,-999.0,83,-99.99,,,-99.99,0.000000,,2013-04-19 08:42:00,
2013-04-19 03:52:00,40.0,36.0,-100.00,SSW,202,9.0,-999.0,83,-99.99,,,-99.99,0.000000,,2013-04-19 08:52:00,
2013-04-19 04:00:00,38.0,33.0,-100.00,SSW,202,9.0,-999.0,82,-99.99,,,-99.99,0.000000,,2013-04-19 09:00:00,
2013-04-19 04:43:00,38.0,33.0,-100.00,SSW,202,9.0,-999.0,82,-99.99,,,-99.99,0.000000,,2013-04-19 09:43:00,
2013-04-19 04:52:00,38.0,33.0,-100.00,SSW,202,9.0,-999.0,82,-99.99,,,-99.99,0.000000,,2013-04-19 09:52:00,
2013-04-19 05:00:00,37.0,32.0,-100.00,SSW,202,10.0,-999.0,80,-99.99,,,-99.99,0.000000,,2013-04-19 10:00:00,
2013-04-19 05:42:00,37.0,32.0,-100.00,SSW,202,10.0,-999.0,80,-99.99,,,-99.99,0.000000,,2013-04-19 10:42:00,
2013-04-19 05:52:00,37.0,32.0,-100.00,SSW,202,10.0,-999.0,80,-99.99,,,-99.99,0.000000,,2013-04-19 10:52:00,
2013-04-19 06:00:00,36.0,30.0,-100.00,SSW,202,10.0,-999.0,80,-99.99,,,-99.99,0.000000,,2013-04-19 11:00:00,
2013-04-19 06:43:00,36.0,30.0,-100.00,SSW,202,10.0,-999.0,80,-99.99,,,-99.99,0.000000,,2013-04-19 11:43:00,
2013-04-19 06:52:00,36.0,30.0,-100.00,SSW,202,10.0,-999.0,80,-99.99,,,-99.99,0.000000,,2013-04-19 11:52:00,
2013-04-19 07:00:00,35.0,29.0,-100.00,SSW,202,10.0,-999.0,80,-99.99,,,-99.99,32.480000,,2013-04-19 12:00:00,
2013-04-19 07:42:00,35.0,29.0,-100.00,SSW,202,10.0,-999.0,80,-99.99,,,-99.99,32.480000,,2013-04-19 12:42:00,
2013-04-19 07:53:00,35.0,29.0,-100.00,SSW,202,10.0,-999.0,80,-99.99,,,-99.99,32.480000,,2013-04-19 12:53:00,
2013-04-19 08:00:00,35.0,29.0,-100.00,SW,225,10.0,-999.0,79,-99.99,,,-99.99,70.760002,,2013-04-19 13:00:00,
2013-04-19 08:42:00,35.0,29.0,-100.00,SW,225,10.0,-999.0,79,-99.99,,,-99.99,70.760002,,2013-04-19 13:42:00,
2013-04-19 08:52:00,35.0,29.0,-100.00,SW,225,10.0,-999.0,79,-99.99,,,-99.99,70.760002,,2013-04-19 13:52:00,
2013-04-19 09:00:00,36.0,28.0,-100.00,SW,225,10.0,-999.0,75,-99.99,,,-99.99,182.119995,,2013-04-19 14:00:00,
2013-04-19 09:43:00,36.0,28.0,-100.00,SW,225,10.0,-999.0,75,-99.99,,,-99.99,182.119995,,2013-04-19 14:43:00,
2013-04-19 09:52:00,36.0,28.0,-100.00,SW,225,10.0,-999.0,75,-99.99,,,-99.99,182.119995,,2013-04-19 14:52:00,
2013-04-19 10:00:00,36.0,29.0,-100.00,SW,225,11.0,-999.0,77,-99.99,,,-99.99,212.279999,,2013-04-19 15:00:00,
2013-04-19 10:43:00,36.0,29.0,-100.00,SW,225,11.0,-999.0,77,-99.99,,,-99.99,212.279999,,2013-04-19 15:43:00,
2013-04-19 10:52:00,36.0,29.0,-100.00,SW,225,11.0,-999.0,77,-99.99,,,-99.99,212.279999,,2013-04-19 15:52:00,
2013-04-19 11:00:00,36.0,30.0,-100.00,WSW,247,10.0,-999.0,81,-99.99,,,-99.99,215.759995,,2013-04-19 16:00:00,
2013-04-19 11:43:00,36.0,30.0,-100.00,WSW,247,10.0,-999.0,81,-99.99,,,-99.99,215.759995,,2013-04-19 16:43:00,
2013-04-19 11:53:00,36.0,30.0,-100.00,WSW,247,10.0,-999.0,81,-99.99,,,-99.99,215.759995,,2013-04-19 16:53:00,
2013-04-19 12:00:00,35.0,31.0,-100.00,WSW,247,11.0,-999.0,83,-99.99,,,-99.99,290.000000,,2013-04-19 17:00:00,
2013-04-19 12:43:00,35.0,31.0,-100.00,WSW,247,11.0,-999.0,83,-99.99,,,-99.99,290.000000,,2013-04-19 17:43:00,
2013-04-19 12:52:00,35.0,31.0,-100.00,WSW,247,11.0,-999.0,83,-99.99,,,-99.99,290.000000,,2013-04-19 17:52:00,
2013-04-19 13:00:00,35.0,28.0,-100.00,West,270,12.0,-999.0,74,-99.99,,,-99.99,381.640015,,2013-04-19 18:00:00,
2013-04-19 13:43:00,35.0,28.0,-100.00,West,270,12.0,-999.0,74,-99.99,,,-99.99,381.640015,,2013-04-19 18:43:00,
2013-04-19 13:52:00,35.0,28.0,-100.00,West,270,12.0,-999.0,74,-99.99,,,-99.99,381.640015,,2013-04-19 18:52:00,
2013-04-19 14:00:00,36.0,25.0,-100.00,West,270,13.0,-999.0,65,-99.99,,,-99.99,466.320007,,2013-04-19 19:00:00,
2013-04-19 14:42:00,36.0,25.0,-100.00,West,270,13.0,-999.0,65,-99.99,,,-99.99,466.320007,,2013-04-19 19:42:00,
2013-04-19 14:52:00,36.0,25.0,-100.00,West,270,13.0,-999.0,65,-99.99,,,-99.99,466.320007,,2013-04-19 19:52:00,
2013-04-19 15:00:00,37.0,24.0,-100.00,West,270,13.0,-999.0,58,-99.99,,,-99.99,569.559998,,2013-04-19 20:00:00,
2013-04-19 15:42:00,37.0,24.0,-100.00,West,270,13.0,-999.0,58,-99.99,,,-99.99,569.559998,,2013-04-19 20:42:00,
2013-04-19 15:52:00,37.0,24.0,-100.00,West,270,13.0,-999.0,58,-99.99,,,-99.99,569.559998,,2013-04-19 20:52:00,
2013-04-19 17:00:00,34.0,20.0,-100.00,West,270,12.0,-999.0,56,-99.99,,,-99.99,235.479996,,2013-04-19 22:00:00,
2013-04-19 17:42:00,34.0,20.0,-100.00,West,270,12.0,-999.0,56,-99.99,,,-99.99,235.479996,,2013-04-19 22:42:00,
2013-04-19 17:52:00,34.0,20.0,-100.00,West,270,12.0,-999.0,56,-99.99,,,-99.99,235.479996,,2013-04-19 22:52:00,
2013-04-19 18:00:00,33.0,17.0,-100.00,WNW,292,12.0,-999.0,52,-99.99,,,-99.99,149.639999,,2013-04-19 23:00:00,
2013-04-19 18:42:00,33.0,17.0,-100.00,WNW,292,12.0,-999.0,52,-99.99,,,-99.99,149.639999,,2013-04-19 23:42:00,
2013-04-19 18:52:00,33.0,17.0,-100.00,WNW,292,12.0,-999.0,52,-99.99,,,-99.99,149.639999,,2013-04-19 23:52:00,
2013-04-19 20:00:00,29.0,16.0,-100.00,NW,315,9.0,-999.0,56,-99.99,,,-99.99,8.120000,,2013-04-20 01:00:00,
2013-04-19 20:42:00,29.0,16.0,-100.00,NW,315,9.0,-999.0,56,-99.99,,,-99.99,8.120000,,2013-04-20 01:42:00,
2013-04-19 20:52:00,29.0,16.0,-100.00,NW,315,9.0,-999.0,56,-99.99,,,-99.99,8.120000,,2013-04-20 01:52:00,
2013-04-19 21:00:00,28.0,16.0,-100.00,NW,315,9.0,-999.0,58,-99.99,,,-99.99,0.000000,,2013-04-20 02:00:00,
2013-04-19 21:42:00,28.0,16.0,-100.00,NW,315,9.0,-999.0,58,-99.99,,,-99.99,0.000000,,2013-04-20 02:42:00,
2013-04-19 21:52:00,28.0,16.0,-100.00,NW,315,9.0,-999.0,58,-99.99,,,-99.99,0.000000,,2013-04-20 02:52:00,
2013-04-19 22:00:00,27.0,16.0,-100.00,NW,315,11.0,-999.0,62,-99.99,,,-99.99,0.000000,,2013-04-20 03:00:00,
2013-04-19 22:43:00,27.0,16.0,-100.00,NW,315,11.0,-999.0,62,-99.99,,,-99.99,0.000000,,2013-04-20 03:43:00,
2013-04-19 22:53:00,27.0,16.0,-100.00,NW,315,11.0,-999.0,62,-99.99,,,-99.99,0.000000,,2013-04-20 03:53:00,
2013-04-19 23:00:00,25.0,14.0,-100.00,NW,315,12.0,-999.0,62,-99.99,,,-99.99,0.000000,,2013-04-20 04:00:00,
2013-04-19 23:43:00,25.0,14.0,-100.00,NW,315,12.0,-999.0,62,-99.99,,,-99.99,0.000000,,2013-04-20 04:43:00,
2013-04-19 23:53:00,25.0,14.0,-100.00,NW,315,12.0,-999.0,62,-99.99,,,-99.99,0.000000,,2013-04-20 04:53:00,